Accueil
METAR-TAF:

METAR-TAF

Aéroports :

P11-b, Pays-Bas

Plate-forme pétrolière

latitude: 52-21-36N, longitude: 3-20-30E, altitude: 24 m

Observation

Le bulletin a été fait il y a 38 minutes, à 11:55 UTC
Vent 14 kt de ouest/sud-ouest
Température 17°C
Humidité 72%
Pression 1006 hPa
Visibilité 10 km ou plus
Quelques nuages à une hauteur de 1800 ft
Nuages épars à une hauteur de 2200 ft

METAR: EHPG 271155Z AUTO 24014KT 9999 FEW018 SCT022 17/12 Q1006

Heure: 14:33 (12:33 UTC)


TAF: absent

Observations et prévisions météorologiques de plus de 4000 aéroports (messages METAR et TAF).

Les stations disponibles sont représentées par des disques jaunes et rouges sur la carte.

Passer la souris dessus pour voir le nom de la station.

Cliquer dessus pour voir les observations et prévisions météorologiques.

Pour changer de carte: cliquez sur les boutons verts avec une croix noire pour zoomer, sur le bouton vert avec un tiret pour effectuer un zoom arrière, ou sur les flèches vertes pour les cartes adjacentes.


METAR-TAF: